Weather History for New Delhi, India

Change the Weather History Date:

Tuesday, January 17, 2012

  Actual Average Record
Temperature  
Mean Temperature 50 °F -  
Max Temperature 55 °F 70 °F - (-1)
Min Temperature 46 °F 48 °F - (-1)
Degree Days  
Heating Degree Days 14    
Moisture  
Dew Point 49 °F    
Average Humidity 97    
Maximum Humidity 100    
Minimum Humidity 88    
Precipitation  
Precipitation 0.00 in - - ()
Sea Level Pressure  
Sea Level Pressure 29.87 in    
Wind  
Wind Speed 5 mph ()    
Max Wind Speed 9 mph    
Max Gust Speed -    
Visibility 0.5 miles    
Events Fog    
Averages and records for this station are not official NWS values.
T = Trace of Precipitation, MM = Missing Value Source: Averaged Metar Reports

Daily Weather History Graph

Daily Weather History Graph

Search for Another Location

Airport:

Trip Planner

Search our weather history database for the weather conditions in past years. The results will help you decide how hot, cold, wet, or windy it might be!

Date:

Astronomy

Jan. 17, 2012 Rise Set
Actual Time 7:15 AM IST 5:47 PM IST
Civil Twilight 6:49 AM IST 6:13 PM IST
Nautical Twilight 6:20 AM IST 6:42 PM IST
Astronomical Twilight 5:52 AM IST 7:10 PM IST
Moon 1:08 AM IST (1/17) 12:18 PM IST (1/17)
Length of Visible Light 11h 23m
Length of Day
10h 32m
Last Quarter, 40% of the Moon is Illuminated
Jan 17
Last Quarter
Jan 23
New
Jan 31
First Quarter
Feb 8
Full
Feb 14
Last Quarter

Hourly Weather History & Observations

Time (IST) Temp. Windchill Dew Point Humidity Pressure Visibility Wind Dir Wind Speed Gust Speed Precip Events Conditions
12:00 AM 55.4 °F - 53.6 °F 94% 29.86 in 0.6 mi WNW 5.8 mph - N/A   Scattered Clouds
12:30 AM 55.4 °F - 53.6 °F 94% 29.86 in 0.6 mi West 4.6 mph - N/A   Scattered Clouds
1:00 AM 51.8 °F - 51.8 °F 100% 29.83 in 0.2 mi WSW 4.6 mph - N/A Fog Shallow Fog
1:30 AM 51.8 °F - 51.8 °F 100% 29.86 in 0.2 mi West 3.5 mph - N/A Fog Fog
2:00 AM 51.8 °F - 51.8 °F 100% 29.83 in 0.2 mi West 3.5 mph - N/A Fog Fog
2:30 AM 50.0 °F - 50.0 °F 100% 29.83 in 0.2 mi West 5.8 mph - N/A Fog Fog
3:00 AM 48.2 °F - 48.2 °F 100% 29.83 in 0.1 mi WSW 3.5 mph - N/A Fog Fog
3:30 AM 46.4 °F 45.2 °F 46.4 °F 100% 29.83 in - WSW 3.5 mph - N/A Fog Fog
4:00 AM 46.4 °F 45.2 °F 46.4 °F 100% 29.83 in - WSW 3.5 mph - N/A Fog Fog
4:30 AM 46.4 °F 44.3 °F 46.4 °F 100% 29.83 in - WSW 4.6 mph - N/A Fog Fog
5:00 AM 48.2 °F - 48.2 °F 100% 29.83 in 0.0 mi West 4.6 mph - N/A Fog Fog
5:30 AM 48.2 °F - 48.2 °F 100% 29.83 in 0.2 mi West 5.8 mph - N/A Fog Fog
6:00 AM 48.2 °F - 48.2 °F 100% 29.83 in 0.2 mi West 5.8 mph - N/A Fog Fog
6:30 AM 48.2 °F - 48.2 °F 100% 29.83 in 0.2 mi West 5.8 mph - N/A Fog Fog
7:00 AM 48.2 °F - 48.2 °F 100% 29.86 in 0.0 mi West 6.9 mph - N/A Fog Fog
7:30 AM 48.2 °F - 48.2 °F 100% 29.86 in 0.0 mi West 6.9 mph - N/A Fog Fog
8:00 AM 48.2 °F - 48.2 °F 100% 29.86 in 0.0 mi West 6.9 mph - N/A Fog Fog
8:30 AM 48.2 °F - 48.2 °F 100% 29.89 in 0.0 mi West 5.8 mph - N/A Fog Fog
9:00 AM 48.2 °F - 48.2 °F 100% 29.89 in 0.1 mi West 4.6 mph - N/A Fog Fog
9:30 AM 48.2 °F - 48.2 °F 100% 29.92 in 0.1 mi West 4.6 mph - N/A Fog Fog
10:00 AM 48.2 °F - 48.2 °F 100% 29.92 in 0.2 mi WNW 4.6 mph - N/A Fog Fog
10:30 AM 48.2 °F - 48.2 °F 100% 29.92 in 0.2 mi West 4.6 mph - N/A Fog Fog
11:00 AM 48.2 °F - 48.2 °F 100% 29.92 in 0.2 mi West 3.5 mph - N/A Fog Fog
11:30 AM 48.2 °F - 48.2 °F 100% 29.92 in 0.3 mi SW 3.5 mph - N/A Fog Fog
12:00 PM 50.0 °F - 48.2 °F 94% 29.92 in 0.4 mi WNW 4.6 mph - N/A Fog Shallow Fog
1:00 PM 51.8 °F - 50.0 °F 94% 29.89 in 0.7 mi SW 4.6 mph - N/A   Mist
1:30 PM 51.8 °F - 50.0 °F 94% 29.89 in 0.8 mi West 5.8 mph - N/A   Mist
2:00 PM 51.8 °F - 51.8 °F 100% 29.86 in 0.8 mi WNW 6.9 mph - N/A   Mist
2:30 PM 53.6 °F - 51.8 °F 94% 29.86 in 0.9 mi WNW 8.1 mph - N/A   Scattered Clouds
3:00 PM 53.6 °F - 51.8 °F 94% 29.86 in 1.4 mi WNW 9.2 mph - N/A   Scattered Clouds
3:30 PM 55.4 °F - 51.8 °F 88% 29.86 in 1.6 mi WNW 9.2 mph - N/A   Scattered Clouds
4:00 PM 55.4 °F - 51.8 °F 88% 29.86 in 1.6 mi West 9.2 mph - N/A   Scattered Clouds
4:30 PM 55.4 °F - 51.8 °F 88% 29.86 in 1.2 mi West 6.9 mph - N/A   Scattered Clouds
5:00 PM 55.4 °F - 51.8 °F 88% 29.86 in 1.2 mi West 6.9 mph - N/A   Scattered Clouds
5:30 PM 53.6 °F - 50.0 °F 88% 29.86 in 1.1 mi West 6.9 mph - N/A   Scattered Clouds
6:00 PM 51.8 °F - 50.0 °F 94% 29.86 in 1.0 mi WSW 6.9 mph - N/A   Partly Cloudy
7:00 PM 51.8 °F - 50.0 °F 94% 29.86 in 0.7 mi West 5.8 mph - N/A   Partly Cloudy
7:30 PM 51.8 °F - 50.0 °F 94% 29.86 in 0.6 mi WSW 6.9 mph - N/A   Partly Cloudy
8:00 PM 48.2 °F - 48.2 °F 100% 29.86 in 0.6 mi WSW 5.8 mph - N/A Fog Shallow Fog
8:30 PM 48.2 °F - 48.2 °F 100% 29.86 in 0.6 mi SW 4.6 mph - N/A Fog Shallow Fog
9:30 PM 48.2 °F - 48.2 °F 100% 29.89 in 0.4 mi West 3.5 mph - N/A Fog Shallow Fog
10:00 PM 48.2 °F - 48.2 °F 100% 29.89 in 0.2 mi West 3.5 mph - N/A Fog Fog
10:30 PM 48.2 °F - 48.2 °F 100% 29.89 in 0.2 mi WNW 4.6 mph - N/A Fog Fog
11:00 PM 48.2 °F - 48.2 °F 100% 29.89 in 0.2 mi NW 5.8 mph - N/A Fog Fog
11:30 PM 48.2 °F - 48.2 °F 100% 29.89 in 0.2 mi WNW 4.6 mph - N/A Fog Fog